Stuart, FL

11:14 PM EDT on May 25, 2017 (GMT -0400)
Witham

Weather History for KSUA - October, 2013

Change the Weather History Date:

Sunday, October 6, 2013

  Actual Average Record
Temperature  
Mean Temperature 80 °F -  
Max Temperature 86 °F 86 °F 94 °F (1948)
Min Temperature 75 °F 70 °F 63 °F (1987)
Cooling Degree Days 16    
Growing Degree Days 30 (Base 50)    
Moisture  
Dew Point 70 °F    
Average Humidity 73    
Maximum Humidity 89    
Minimum Humidity 55    
Precipitation  
Precipitation 0.01 in - - ()
Sea Level Pressure  
Sea Level Pressure 29.95 in    
Wind  
Wind Speed 5 mph (SE)    
Max Wind Speed 14 mph    
Max Gust Speed -    
Visibility 9 miles    
Events      
Averages and records for this station are not official NWS values.
T = Trace of Precipitation, MM = Missing Value Source: NWS Daily Summary

Daily Weather History Graph

Daily Weather History Graph

Search for Another Location

Airport or City:

Trip Planner

Search our weather history database for the weather conditions in past years. The results will help you decide how hot, cold, wet, or windy it might be!

Date:

Astronomy

Oct. 06, 2013 Rise Set
Actual Time 7:16 AM EDT 7:01 PM EDT
Civil Twilight 6:52 AM EDT 7:24 PM EDT
Nautical Twilight 6:25 AM EDT 7:51 PM EDT
Astronomical Twilight 5:58 AM EDT 8:18 PM EDT
Moon 8:47 AM EDT (10/6) 8:13 PM EDT (10/6)
Length of Visible Light 12h 31m
Length of Day
11h 45m
Waxing Crescent, 3% of the Moon is Illuminated
Oct 6
Waxing Crescent
Oct 11
First Quarter
Oct 18
Full
Oct 26
Last Quarter
Nov 3
New

Hourly Weather History & Observations

Time (EDT) Temp. Heat Index Dew Point Humidity Pressure Visibility Wind Dir Wind Speed Gust Speed Precip Events Conditions
12:15 AM 80.6 °F 83.9 °F 69.8 °F 70% 29.99 in 10.0 mi East 5.8 mph - N/A   Clear
12:35 AM 80.6 °F 83.9 °F 69.8 °F 70% 29.99 in 10.0 mi East 5.8 mph - N/A   Scattered Clouds
12:55 AM 80.6 °F 83.9 °F 69.8 °F 70% 29.99 in 10.0 mi East 4.6 mph - N/A   Scattered Clouds
1:15 AM 80.6 °F 83.9 °F 69.8 °F 70% 29.99 in 10.0 mi East 6.9 mph - N/A   Clear
1:35 AM 78.8 °F - 69.8 °F 74% 29.98 in 10.0 mi ESE 9.2 mph - N/A   Scattered Clouds
1:55 AM 78.8 °F - 69.8 °F 74% 29.98 in 10.0 mi ESE 4.6 mph - N/A   Scattered Clouds
2:15 AM 78.8 °F - 69.8 °F 74% 29.97 in 10.0 mi ESE 4.6 mph - N/A   Scattered Clouds
2:35 AM 78.8 °F - 69.8 °F 74% 29.96 in 10.0 mi SSE 3.5 mph - N/A   Scattered Clouds
2:55 AM 78.8 °F - 69.8 °F 74% 29.96 in 10.0 mi SE 4.6 mph - N/A   Clear
3:15 AM 78.8 °F - 69.8 °F 74% 29.95 in 10.0 mi SE 5.8 mph - N/A   Clear
3:35 AM 78.8 °F - 69.8 °F 74% 29.94 in 10.0 mi SE 4.6 mph - N/A   Scattered Clouds
3:55 AM 77.0 °F - 69.8 °F 78% 29.94 in 10.0 mi ESE 3.5 mph - N/A   Clear
4:15 AM 78.8 °F - 69.8 °F 74% 29.94 in 10.0 mi SE 3.5 mph - N/A   Clear
4:35 AM 78.8 °F - 69.8 °F 74% 29.93 in 10.0 mi SE 3.5 mph - N/A   Clear
4:55 AM 78.8 °F - 69.8 °F 74% 29.93 in 10.0 mi SE 4.6 mph - N/A   Scattered Clouds
5:15 AM 78.8 °F - 69.8 °F 74% 29.93 in 10.0 mi SE 3.5 mph - N/A   Scattered Clouds
5:35 AM 77.0 °F - 71.6 °F 83% 29.93 in 10.0 mi SE 4.6 mph - 0.01 in   Mostly Cloudy
5:55 AM 77.0 °F - 71.6 °F 83% 29.94 in 10.0 mi Calm Calm - 0.01 in   Scattered Clouds
6:15 AM 77.0 °F - 71.6 °F 83% 29.94 in 10.0 mi Calm Calm - N/A   Scattered Clouds
6:47 AM 77.0 °F - 71.6 °F 83% 29.94 in 7.0 mi Calm Calm - N/A   Mostly Cloudy
7:47 AM 75.2 °F - 71.6 °F 89% 29.95 in 7.0 mi Calm Calm - N/A   Mostly Cloudy
8:47 AM 80.6 °F 85.4 °F 73.4 °F 79% 29.97 in 7.0 mi Calm Calm - N/A   Mostly Cloudy
9:47 AM 84.2 °F 89.6 °F 71.6 °F 66% 29.97 in 7.0 mi ESE 8.1 mph - N/A   Mostly Cloudy
10:47 AM 86.0 °F 90.4 °F 69.8 °F 58% 29.99 in 7.0 mi East 8.1 mph - N/A   Mostly Cloudy
11:47 AM 86.0 °F 89.4 °F 68.0 °F 55% 29.98 in 7.0 mi ESE 9.2 mph - N/A   Mostly Cloudy
12:47 PM 86.0 °F 89.4 °F 68.0 °F 55% 29.96 in 7.0 mi East 8.1 mph - N/A   Mostly Cloudy
1:47 PM 86.0 °F 90.4 °F 69.8 °F 58% 29.94 in 7.0 mi ESE 13.8 mph - N/A   Mostly Cloudy
2:47 PM 84.2 °F 87.3 °F 68.0 °F 58% 29.93 in 7.0 mi South 9.2 mph - N/A   Mostly Cloudy
3:47 PM 86.0 °F 89.4 °F 68.0 °F 55% 29.91 in 7.0 mi ESE 9.2 mph - N/A   Mostly Cloudy
4:47 PM 84.2 °F 89.6 °F 71.6 °F 66% 29.90 in 7.0 mi East 9.2 mph - N/A   Scattered Clouds
6:47 PM 82.4 °F 87.2 °F 71.6 °F 70% 29.91 in 7.0 mi SE 5.8 mph - N/A   Scattered Clouds
8:15 PM 80.6 °F 84.6 °F 71.6 °F 74% 29.92 in 10.0 mi Calm Calm - N/A   Mostly Cloudy
8:35 PM 78.8 °F - 71.6 °F 78% 29.92 in 10.0 mi SE 4.6 mph - N/A   Mostly Cloudy
8:55 PM 78.8 °F - 71.6 °F 78% 29.93 in 10.0 mi SE 6.9 mph - N/A   Clear
9:15 PM 78.8 °F - 71.6 °F 78% 29.93 in 10.0 mi SE 5.8 mph - N/A   Clear
9:35 PM 78.8 °F - 69.8 °F 74% 29.94 in 10.0 mi SE 5.8 mph - N/A   Clear
9:55 PM 78.8 °F - 69.8 °F 74% 29.93 in 10.0 mi SSE 5.8 mph - N/A   Clear
10:15 PM 78.8 °F - 69.8 °F 74% 29.93 in 10.0 mi SSW 3.5 mph - N/A   Clear
10:35 PM 78.8 °F - 69.8 °F 74% 29.93 in 10.0 mi South 4.6 mph - N/A   Scattered Clouds
10:55 PM 78.8 °F - 69.8 °F 74% 29.94 in 10.0 mi ESE 4.6 mph - N/A   Scattered Clouds
11:15 PM 77.0 °F - 69.8 °F 78% 29.93 in 10.0 mi SE 4.6 mph - N/A   Clear
11:35 PM 78.8 °F - 71.6 °F 78% 29.92 in 10.0 mi SSE 4.6 mph - N/A   Clear
11:55 PM 78.8 °F - 69.8 °F 74% 29.92 in 10.0 mi South 4.6 mph - N/A   Clear